[Iaude] MPEC T99: 2023 TB3 [a=2.54,e=0.61,i=5.3,H=22.9]

mpec at marsden.cfa.harvard.edu mpec at marsden.cfa.harvard.edu
Sun Oct 8 10:02:04 EDT 2023


M.P.E.C. 2023-T99                               Issued 2023 October 8, 14:00 UT

     The Minor Planet Electronic Circulars contain information on unusual
         minor planets, routine data on comets and natural satellites,
         and occasional editorial announcements.  They are published
    on behalf of Division F of the International Astronomical Union by the
          Minor Planet Center, Smithsonian Astrophysical Observatory,
                          Cambridge, MA 02138, U.S.A.
			  
             Prepared using the Tamkin Foundation Computer Network

                              MPC at CFA.HARVARD.EDU
            URL https://www.minorplanetcenter.net/    ISSN 1523-6714

                                    2023 TB3                                    


Observations:
     K23T03B*1C2023 10 06.42443202 33 35.658-18 23 59.10         19.88GVET099G96
     K23T03B 1C2023 10 06.42915502 33 37.638-18 24 11.52         19.80GVET099G96
     K23T03B 1C2023 10 06.43386602 33 39.636-18 24 23.87         19.70GVET099G96
     K23T03B 1C2023 10 06.43857902 33 41.605-18 24 36.25         20.07GVET099G96
     K23T03B  C2023 10 06.44225902 33 45.931-18 24 37.70         20.20wXET099F52
     K23T03B  C2023 10 06.45254102 33 50.270-18 25 05.46         20.49wXET099F52
     K23T03B mC2023 10 06.45733502 33 49.540-18 25 25.21         19.98GVET099I52
     K23T03B mC2023 10 06.45787502 33 49.763-18 25 26.22         19.87GVET099I52
     K23T03B mC2023 10 06.45841502 33 49.993-18 25 28.16         20.19GVET099I52
     K23T03B mC2023 10 06.45895602 33 50.220-18 25 28.85         20.16GVET099I52
     K23T03B  C2023 10 06.47313802 33 58.897-18 26 00.44         20.35wXET099F52
     K23T03B KB2023 10 07.01194902 38 01.58 -18 50 07.4          20.7 GVET099I93
     K23T03B KB2023 10 07.02101002 38 05.51 -18 50 32.0          20.6 GVET099I93
     K23T03B KB2023 10 07.02987102 38 09.41 -18 50 55.4          20.6 GVET099I93
     K23T03B  C2023 10 07.31172302 40 20.195-19 03 23.78         20.4 GVET099654
     K23T03B  C2023 10 07.31573202 40 21.985-19 03 34.76         20.4 GVET099654
     K23T03B KC2023 10 07.98956202 45 40.51 -19 33 49.9          19.6 GXET099958
     K23T03B KC2023 10 07.99675102 45 43.90 -19 34 08.5          19.7 GXET099958
     K23T03B KC2023 10 08.00393902 45 47.24 -19 34 27.9          19.3 GXET099958
     K23T03B KC2023 10 08.06406 02 46 14.65 -19 37 17.0          20.9 GVET099204
     K23T03B KC2023 10 08.08026 02 46 22.16 -19 37 59.7                VET099204
     K23T03B KC2023 10 08.52914002 50 04.15 -19 56 52.9          20.2 GVET099474
     K23T03B KC2023 10 08.53164602 50 05.30 -19 56 59.7          20.6 GVET099474
     K23T03B KC2023 10 08.53665602 50 07.74 -19 57 13.6          19.7 GVET099474
     K23T03B KC2023 10 08.53921002 50 08.98 -19 57 21.6          20.3 GVET099474

Observer details:
204 Schiaparelli Observatory.  Observers L. Buzzi, G. Galli.  0.84-m f/3.5
    reflector + CCD.
474 Mount John Observatory, Lake Tekapo.  Observers A. C. Gilmore, P. M.
    Kilmartin.  Measurer P. M. Kilmartin.  0.6-m f/6.2 reflector + CCD.
654 Table Mountain Observatory, Wrightwood-PHMC.  Observers N. Evans, P. Choi,
    N. Saini, C. Zhai, R. Trahan, M. Shao.  1.0-m Reflector + CCD.
958 Observatoire de Dax.  Observers P. Dupouy, J. B. de Vanssay.  Measurer P.
    Dupouy.  0.43-m f/2.7 Reflector + CCD.
F52 Pan-STARRS 2, Haleakala.  Observers J. Bulger, T. Lowe, P. Minguez, A.
    Schultz, I. Smith.  Measurers K. Chambers, T. de Boer, J. Bulger, J.
    Fairlamb, H. Gao, M. Huber, C.-C. Lin, T. Lowe, E. Magnier, P. Minguez, Y.
    Ramanjooloo, A. Schultz, I. Smith, R. Wainscoat, R. Weryk.  1.8-m Ritchey-
    Chretien + CCD.
G96 Mt. Lemmon Survey.  Observer K. W. Wierzchos.  Measurers E. C. Beshore, D.
    Fay, J. B. Fazekas, D. C. Fuls, A. R. Gibbs, A. D. Grauer, H. Groeller, J.
    K. Hogan, R. A. Kowalski, S. M. Larson, G. J. Leonard, D. Rankin, R. L.
    Seaman, F. C. Shelly, K. W. Wierzchos.  1.5-m reflector + 10K CCD.
I52 Steward Observatory, Mt. Lemmon Station.  Observer D. Rankin.  Measurers
    E. C. Beshore, D. Fay, J. B. Fazekas, D. C. Fuls, A. R. Gibbs, A. D.
    Grauer, H. Groeller, J. K. Hogan, R. A. Kowalski, S. M. Larson, G. J.
    Leonard, D. Rankin, R. L. Seaman, F. C. Shelly, K. W. Wierzchos.  1.0-m
    prime focus + CCD.
I93 St Pardon de Conques.  Observer F. Losse.  0.40-m f/3.7 reflector + CMO.

Orbital elements:
2023 TB3                                                 Earth MOID = 0.0912 AU
Epoch 2023 Sept. 13.0 TT = JDT 2460200.5                Bell                    
M 344.65549              (2000.0)            P               Q                  
n   0.24314756     Peri.  275.25211     +0.49367777     -0.86800399             
a   2.5422764      Node   145.00173     +0.83021438     +0.45212529             
e   0.6068096      Incl.    5.34198     +0.25889446     +0.20530901             
P   4.05           H   22.90          G   0.15           U   9                  
Residuals in seconds of arc
231006 G96  0.3+  0.3-    231006 I52  0.1-  0.1+    231008 958  0.1+  4.1+
231006 G96  0.1+  0.3-    231006 F52  0.0   0.4-    231008 204  0.2+  0.3-
231006 G96  0.3+  0.4-    231007 I93  0.8+  0.7+    231008 204  0.2-  0.5+
231006 G96  0.0   0.4-    231007 I93  0.1+  0.5+    231008 474  0.1+  0.1+
231006 F52  0.1-  0.4-    231007 I93  0.2+  1.0+    231008 474  0.6-  0.2+
231006 F52  0.2+  0.5-    231007 654  0.0   0.2-    231008 474  0.1+  0.0
231006 I52  0.0   0.5-    231007 654  0.0   0.3-    231008 474  0.3+  1.0-
231006 I52  0.1-  0.1-    231007 958  0.6-  2.7+
231006 I52  0.1-  0.6-    231007 958  0.1+  3.8+

Ephemeris:
2023 TB3                 a,e,i = 2.54, 0.61, 5                   q = 0.9996
Date    TT    R. A. (2000) Decl.     Delta      r    Elong.  Phase     V
2023 09 08    00 44 01.8 -05 03 00   0.3418  1.3255   155.1    18.7    22.1
...
2023 09 23    01 23 50.7 -10 12 06   0.2266  1.2148   156.4    19.3    21.1
...
2023 10 01    01 59 11.3 -14 38 15   0.1788  1.1612   151.1    24.6    20.6
...
2023 10 07    02 37 54.7 -18 48 43   0.1501  1.1245   143.9    31.6    20.4
2023 10 08    02 45 43.6 -19 33 27   0.1461  1.1187   142.4    33.0    20.4
2023 10 09    02 53 59.1 -20 18 32   0.1422  1.1130   140.8    34.5    20.3
...
2023 10 15    03 53 21.0 -24 36 54   0.1242  1.0812   129.9    45.1    20.3
...
2023 10 23    05 33 22.6 -27 39 21   0.1157  1.0459   113.1    61.1    20.5
...
2023 11 07    08 11 40.4 -22 09 31   0.1422  1.0054    91.7    80.2    21.5

M. P. C. Staff               (C) Copyright 2023 MPC           M.P.E.C. 2023-T99





More information about the Iaude mailing list